When you browse on this site, cookies collect data to enhance your experience and personalize the content and advertising you see.
Visit our Privacy Policy to learn more. By continuing to use the site, you agree to this use of cookies and data.
  • In Spain
  • List of Countries
  • For 7 days
  • Water Temperature
  • Weather Map
  • Weather Widgets
  • user-avatar
    Login

    Hourly Weather Salnica-Slobodka

    Today, 19 August, Monday

    Time Temperature Precipitation Wind Pressure Humidity
    00:00 +14°C° 0 mm 3 mps 740 mmHg 97%
    01:00 +14°C° 0 mm 3 mps 740 mmHg 97%
    02:00 +13°C° 0 mm 3 mps 740 mmHg 96%
    03:00 +13°C° 0 mm 3 mps 741 mmHg 96%
    04:00 +13°C° 0 mm 3 mps 741 mmHg 97%
    05:00 +13°C° 0 mm 3 mps 741 mmHg 97%
    06:00 +14°C° 0 mm 3 mps 742 mmHg 92%
    07:00 +17°C° 0 mm 3 mps 742 mmHg 88%
    08:00 +19°C° 0 mm 3 mps 742 mmHg 83%
    09:00 +20°C° 0 mm 3 mps 742 mmHg 77%
    10:00 +21°C° 0 mm 3 mps 743 mmHg 72%
    11:00 +22°C° 0 mm 3 mps 743 mmHg 66%
    12:00 +24°C° 0 mm 3 mps 743 mmHg 64%
    13:00 +25°C° 0 mm 3 mps 743 mmHg 62%
    14:00 +25°C° 0 mm 2 mps 744 mmHg 60%
    15:00 +25°C° 0 mm 2 mps 744 mmHg 63%
    16:00 +25°C° 0 mm 2 mps 744 mmHg 67%
    17:00 +25°C° 0 mm 1 mps 744 mmHg 71%
    18:00 +23°C° 0 mm 1 mps 744 mmHg 75%
    19:00 +21°C° 0 mm 1 mps 744 mmHg 79%
    20:00 +19°C° 0 mm 1 mps 744 mmHg 83%
    21:00 +19°C° 0 mm 1 mps 744 mmHg 84%
    22:00 +18°C° 0 mm 1 mps 745 mmHg 86%
    23:00 +16°C° 0 mm 1 mps 745 mmHg 87%

    Tomorrow, 20 August, Tuesday

    Time Temperature Precipitation Wind Pressure Humidity
    00:00 +15°C° 0 mm 0 mps 745 mmHg 87%
    01:00 +15°C° 0 mm 0 mps 745 mmHg 86%
    02:00 +15°C° 0 mm 0 mps 745 mmHg 86%
    03:00 +14°C° 0 mm 0 mps 745 mmHg 86%
    04:00 +14°C° 0 mm 0 mps 745 mmHg 86%
    05:00 +14°C° 0 mm 0 mps 745 mmHg 85%
    06:00 +16°C° 0 mm 0 mps 746 mmHg 80%
    07:00 +18°C° 0 mm 0 mps 746 mmHg 75%
    08:00 +20°C° 0 mm 0 mps 746 mmHg 70%
    09:00 +23°C° 0 mm 1 mps 746 mmHg 66%
    10:00 +24°C° 0 mm 1 mps 746 mmHg 62%
    11:00 +25°C° 0 mm 1 mps 746 mmHg 58%
    12:00 +26°C° 0 mm 1 mps 746 mmHg 56%
    13:00 +26°C° 0 mm 1 mps 746 mmHg 55%
    14:00 +27°C° 0 mm 1 mps 746 mmHg 53%
    15:00 +27°C° 0 mm 1 mps 746 mmHg 57%
    16:00 +26°C° 0 mm 1 mps 746 mmHg 61%
    17:00 +26°C° 0 mm 1 mps 746 mmHg 65%
    18:00 +24°C° 0 mm 1 mps 746 mmHg 68%
    19:00 +23°C° 0 mm 1 mps 746 mmHg 70%
    20:00 +19°C° 0 mm 0 mps 746 mmHg 73%
    21:00 +20°C° 0 mm 1 mps 746 mmHg 74%
    22:00 +20°C° 0 mm 1 mps 746 mmHg 75%
    23:00 +20°C° 0 mm 1 mps 746 mmHg 75%

    Day after tomorrow, 21 August, Wednesday

    Time Temperature Precipitation Wind Pressure Humidity
    00:00 +19°C° 0 mm 1 mps 747 mmHg 77%
    01:00 +17°C° 0 mm 0 mps 747 mmHg 78%
    02:00 +17°C° 0 mm 0 mps 747 mmHg 79%
    03:00 +16°C° 0 mm 0 mps 747 mmHg 80%
    04:00 +16°C° 0 mm 0 mps 747 mmHg 80%
    05:00 +16°C° 0 mm 0 mps 747 mmHg 81%
    06:00 +18°C° 0 mm 0 mps 747 mmHg 77%
    07:00 +20°C° 0 mm 0 mps 747 mmHg 73%
    08:00 +21°C° 0 mm 0 mps 747 mmHg 68%
    09:00 +23°C° 0 mm 0 mps 747 mmHg 65%
    10:00 +24°C° 0 mm 0 mps 747 mmHg 62%
    11:00 +25°C° 0 mm 0 mps 747 mmHg 58%
    12:00 +26°C° 0 mm 0 mps 747 mmHg 57%
    13:00 +28°C° 0 mm 1 mps 747 mmHg 56%
    14:00 +28°C° 0 mm 1 mps 747 mmHg 54%
    15:00 +28°C° 0 mm 1 mps 746 mmHg 58%
    16:00 +28°C° 0 mm 1 mps 746 mmHg 61%
    17:00 +28°C° 0 mm 1 mps 746 mmHg 65%
    18:00 +26°C° 0 mm 1 mps 746 mmHg 69%
    19:00 +24°C° 0 mm 1 mps 746 mmHg 73%
    20:00 +22°C° 0 mm 1 mps 746 mmHg 78%
    21:00 +22°C° 0 mm 1 mps 746 mmHg 79%
    22:00 +21°C° 0 mm 1 mps 746 mmHg 81%
    23:00 +20°C° 0 mm 1 mps 746 mmHg 83%

    22 August, Thursday

    Time Temperature Precipitation Wind Pressure Humidity
    00:00 +20°C° 0 mm 1 mps 745 mmHg 84%
    01:00 +20°C° 0 mm 1 mps 745 mmHg 85%
    02:00 +19°C° 0 mm 1 mps 745 mmHg 86%
    03:00 +19°C° 0 mm 1 mps 745 mmHg 86%
    04:00 +19°C° 0 mm 1 mps 745 mmHg 86%
    05:00 +19°C° 0 mm 1 mps 745 mmHg 86%
    06:00 +20°C° 0 mm 1 mps 745 mmHg 81%
    07:00 +22°C° 0 mm 1 mps 745 mmHg 76%
    08:00 +24°C° 0 mm 1 mps 745 mmHg 72%
    09:00 +25°C° 0 mm 1 mps 745 mmHg 67%
    10:00 +26°C° 0 mm 1 mps 745 mmHg 63%
    11:00 +27°C° 0 mm 1 mps 744 mmHg 59%
    12:00 +27°C° 0 mm 1 mps 744 mmHg 57%
    13:00 +28°C° 0 mm 1 mps 744 mmHg 55%
    14:00 +28°C° 0 mm 1 mps 744 mmHg 52%
    15:00 +28°C° 0 mm 1 mps 744 mmHg 56%
    16:00 +27°C° 0 mm 1 mps 743 mmHg 59%
    17:00 +27°C° 0 mm 1 mps 743 mmHg 63%
    18:00 +25°C° 0 mm 1 mps 743 mmHg 66%
    19:00 +24°C° 0 mm 1 mps 744 mmHg 69%
    20:00 +20°C° 0 mm 0 mps 744 mmHg 73%
    21:00 +21°C° 0 mm 1 mps 744 mmHg 77%
    22:00 +21°C° 0 mm 1 mps 744 mmHg 81%
    23:00 +19°C° 0 mm 2 mps 744 mmHg 85%

    23 August, Friday

    Time Temperature Precipitation Wind Pressure Humidity
    00:00 +19°C° 0 mm 2 mps 744 mmHg 88%
    01:00 +18°C° 0 mm 2 mps 744 mmHg 92%
    02:00 +18°C° 0 mm 2 mps 744 mmHg 95%
    03:00 +18°C° 0.6 mm 3 mps 744 mmHg 96%
    04:00 +18°C° 0.6 mm 3 mps 744 mmHg 96%
    05:00 +18°C° 0.6 mm 3 mps 744 mmHg 97%
    06:00 +18°C° 0.8 mm 3 mps 744 mmHg 96%
    07:00 +18°C° 0.8 mm 3 mps 745 mmHg 96%
    08:00 +18°C° 0.8 mm 3 mps 745 mmHg 95%
    09:00 +18°C° 1.8 mm 3 mps 745 mmHg 95%
    10:00 +18°C° 1.8 mm 3 mps 745 mmHg 95%
    11:00 +18°C° 1.8 mm 3 mps 745 mmHg 95%
    12:00 +18°C° 2.4 mm 3 mps 745 mmHg 95%
    13:00 +17°C° 2.4 mm 4 mps 745 mmHg 95%
    14:00 +17°C° 2.4 mm 4 mps 745 mmHg 95%
    15:00 +17°C° 0.3 mm 4 mps 745 mmHg 94%
    16:00 +17°C° 0.3 mm 4 mps 745 mmHg 93%
    17:00 +17°C° 0.3 mm 4 mps 745 mmHg 92%
    18:00 +17°C° 0 mm 3 mps 746 mmHg 92%
    19:00 +16°C° 0 mm 3 mps 746 mmHg 93%
    20:00 +16°C° 0 mm 2 mps 746 mmHg 94%
    21:00 +15°C° 0 mm 2 mps 746 mmHg 93%
    22:00 +15°C° 0 mm 2 mps 747 mmHg 92%
    23:00 +13°C° 0 mm 3 mps 747 mmHg 91%

    24 August, Saturday

    Time Temperature Precipitation Wind Pressure Humidity
    00:00 +13°C° 0 mm 3 mps 747 mmHg 92%
    01:00 +12°C° 0 mm 3 mps 747 mmHg 93%
    02:00 +12°C° 0 mm 3 mps 747 mmHg 93%
    03:00 +12°C° 0 mm 3 mps 747 mmHg 92%
    04:00 +11°C° 0 mm 3 mps 748 mmHg 91%
    05:00 +11°C° 0 mm 3 mps 748 mmHg 90%
    06:00 +13°C° 0 mm 3 mps 748 mmHg 86%
    07:00 +14°C° 0 mm 3 mps 748 mmHg 82%
    08:00 +17°C° 0 mm 3 mps 748 mmHg 78%
    09:00 +18°C° 0 mm 3 mps 748 mmHg 72%
    10:00 +19°C° 0 mm 3 mps 749 mmHg 67%
    11:00 +21°C° 0 mm 3 mps 749 mmHg 61%
    12:00 +21°C° 0 mm 3 mps 749 mmHg 60%
    13:00 +22°C° 0 mm 3 mps 749 mmHg 59%
    14:00 +22°C° 0 mm 3 mps 748 mmHg 58%
    15:00 +22°C° 0 mm 3 mps 748 mmHg 62%
    16:00 +21°C° 0 mm 2 mps 748 mmHg 66%
    17:00 +21°C° 0 mm 2 mps 748 mmHg 70%
    18:00 +19°C° 0 mm 2 mps 748 mmHg 73%
    19:00 +17°C° 0 mm 2 mps 748 mmHg 76%
    20:00 +16°C° 0 mm 2 mps 749 mmHg 79%
    21:00 +15°C° 0 mm 1 mps 749 mmHg 80%
    22:00 +15°C° 0 mm 1 mps 749 mmHg 81%
    23:00 +14°C° 0 mm 1 mps 749 mmHg 82%
    Show more